Location: Mesa
(33.4220°N, 111.8220°W)
Time: 13:14:33
(UTC-07:00)

Hubble Space Telescope - Pass Details

Date: 22 November 2019
Orbit: 536 x 540 km, 28.5° (Epoch: 05 December)

Event Time Altitude Azimuth Distance (km) Brightness Sun altitude
Rises 18:26:52 0° 253° (WSW) 2,667 6.4 -13.7°
Reaches altitude 10° 18:29:13 10° 246° (WSW) 1,778 4.8 -14.1°
Maximum altitude 18:33:05 40° 176° (S) 792 1.7 -14.9°
Enters shadow 18:35:27 20° 117° (ESE) 1,257 2.2 -15.4°
